Weather in Malakanovskoye

Russia / The Kabardino-Balkar Republic     44°00′24″N   44°23′32″E
temp.,
°C
wind,
m/s
gust,
m/s
humid.,
%
clouds,
%
prec.,
mm/h
press.,
hPa
HPBL,
m
6 may, thu
thu600:00+9se387095 0.0 1018139
03:00+8ese36686 0.0 101790
06:00+9ese311740 0.0 1017280
09:00+15ese79430 0.0 1016969
12:00+19ese78360 0.0 10141391
15:00+19ese78371 0.0 10131486
18:00+16ese59545 0.0 1014357
21:00+10e4106295 0.0 1016206
7 may, fri
fri700:00+9e2572100 0.0 101592
03:00+8e2378100 0.0 101549
06:00+9ene118087 0.0 101658
09:00+14ne22638 0.0 1017518
12:00+19ne22485 0.0 1016942
15:00+21nne33425 0.0 10161154
18:00+20ne125465 0.0 101713
21:00+15ene11566 0.0 101811
8 may, sat
sat800:00+13se11605 0.0 101810
03:00+11ssw11675 0.0 101810
06:00+13se22715 0.0 101733
09:00+19ese46562 0.0 1016626
12:00+23ese67395 0.0 10151314
15:00+24ese5636100 0.0 10131586
18:00+20ese595681 0.0 1013262
21:00+14e497415 0.0 1013177
9 may, sun
sun900:00+11ene34835 0.0 101270
03:00+10e22930 0.0 101022
06:00+11ese2291100 0.0 100895
09:00+17nw566985 0.0 1008636
12:00+20nnw896699 0.0 10091228
15:00+21nnw776096 0.1 10101522
18:00+9wnw122186100 1.1 1016789
21:00+7wnw101889100 2.5 1021970
10 may, mon
mon1000:00+7wnw81585100 0.7 1021982
03:00+7wnw8147659 0.8 10211012
06:00+8w51370100 0.0 1023758
09:00+12wnw8115587 0.0 10201693
12:00+14wnw5846100 0.1 10201829
15:00+16wnw5640100 0.1 10182239
18:00+12w586384 0.0 1019363
21:00+9sw4773100 0.0 1021209